Weather Roundup
Issued by NWS

Home | Current Version | Previous Version | Text Only | Print | Product List | Glossary On
Versions: 1 2 3 4 5 6 7 8 9 10 11 12 13 14 15 16 17 18 19 20 21 22 23 24 25 26 27 28 29 30 31 32 33 34 35 36 37 38 39 40 41 42 43 44 45 46 47 48 49 50
000
NZUS93 KARX 272010
HRRWXR

CURRENT HOURLY OBSERVATIONS ACROSS
MUCH OF THE UPPER MISSISSIPPI VALLEY
NATIONAL WEATHER SERVICE LA CROSSE WI
200 PM CST THU NOV 27 2014


...SOUTHEAST MINNESOTA...


CITY           SKY/WX    TMP DP  RH WIND       PRES   REMARKS
ROCHESTER      SUNNY      4  -4  69 NW6       30.41F WCI  -7
ROCHESTER/MAYO FAIR       8  -4  60 NW7       30.43S WCI  -4
WINONA         SUNNY     12   1  62 N6        30.46F WCI   3
AUSTIN         SUNNY      3  -6  66 W3        30.43R
ALBERT LEA     SUNNY      3  -6  66 W3        30.43S
DODGE CENTER   SUNNY      3  -4  72 N5        30.41S WCI  -6
PRESTON        SUNNY      6  -3  66 NW8       30.41S WCI  -7
OWATONNA       SUNNY      1  -6  71 CALM      30.44S
FARIBAULT      SUNNY      7  -6  56 SW3       30.45S
$$

...ELSEWHERE IN MINNESOTA...


CITY           SKY/WX    TMP DP  RH WIND       PRES   REMARKS
MINNEAPOLIS    MOSUNNY    7  -4  60 CALM      30.46F
INTNL FALLS    SUNNY      3  -7  63 VRB6      30.37F WCI  -8
DULUTH         SUNNY      9  -7  48 W6        30.34F WCI  -1
RED WING         N/A     10  -2  56 W6        30.45F WCI   1
REDWOOD FALLS  SUNNY      0  -6  76 S6        30.44F WCI -12
MANKATO        SUNNY      3  -6  66 CALM      30.46F
WORTHINGTON    CLOUDY     7  -6  56 S8        30.37F WCI  -6
FAIRMONT       SUNNY      1  -6  71 S3        30.43F
$$

...SOUTHWEST WISCONSIN...


CITY           SKY/WX    TMP DP  RH WIND       PRES   REMARKS
LA CROSSE      SUNNY     14   0  53 N9        30.44F WCI   2
PRAIRIE DU CHI SUNNY     17  -3  41 NW6       30.43F WCI   8
BOSCOBEL       SUNNY     18   0  45 NW8       30.42S WCI   8
LONE ROCK      SUNNY     21   5  50 W13       30.40S WCI   9
PLATTEVILLE    SUNNY     18   3  52 CALM      30.38S
FORT MC COY    SUNNY     14   1  56 W9        30.42S WCI   2
CAMP DOUGLAS   SUNNY     14   6  68 W9        30.38F WCI   2
VIROQUA        FAIR      12  -1  55 NW7       30.37S WCI   1
WIS DELLS      SUNNY     15   6  66 NW6       30.37S WCI   7
$$

...ELSEWHERE IN WISCONSIN...


CITY           SKY/WX    TMP DP  RH WIND       PRES   REMARKS
MILWAUKEE      FLURRIES  22  12  65 NW9       30.34R WCI  12
MADISON        MOSUNNY   19   8  62 NW9       30.36S WCI   8
GREEN BAY      SUNNY     19   6  57 NW13      30.35S WCI   6
EAU CLAIRE     SUNNY      9  -2  61 W8        30.42F WCI  -3
BLACK RVR FLS  FAIR      13  -1  54 W8        30.41F WCI   2
MEDFORD        SUNNY     11   0  61 NW5       30.32S WCI   3
WAUSAU         SUNNY     14   1  56 NW10      30.32S WCI   1
WIS RAPIDS     SUNNY     13   2  61 NW7       30.38S WCI   3
MARSHFIELD     SUNNY     10   0  63 NW9       30.35F WCI  -3
RICE LAKE      SUNNY      8  -6  52 NW3       30.42S
$$

...NORTHEAST IOWA...


CITY           SKY/WX    TMP DP  RH WIND       PRES   REMARKS
DECORAH        SUNNY     10  -4  52 N9        30.39F WCI  -2
MASON CITY     SUNNY      4  -3  73 NW6       30.44F WCI  -7
CHARLES CITY   SUNNY      7  -4  61 NW7       30.45R WCI  -5
OELWEIN        SUNNY     10   0  61 NW9       30.43F WCI  -2
$$

...ELSEWHERE IN IOWA...


CITY           SKY/WX    TMP DP  RH WIND       PRES   REMARKS
DES MOINES     PTSUNNY   14  -2  49 CALM      30.47F
IOWA CITY      SUNNY     16   5  62 NW10      30.48S WCI   4
FORT DODGE     SUNNY      3  -6  66 CALM      30.45F
$$

...NORTHERN ILLINOIS...


CITY           SKY/WX    TMP DP  RH WIND       PRES   REMARKS
CHICAGO-OHARE  PTSUNNY   24  14  65 NW16      30.34S WCI  11
CHICAGO-MIDWAY CLOUDY    26  15  63 NW14      30.35R WCI  14
MOLINE         SUNNY     21   6  52 NW14      30.43S WCI   8
ROCKFORD       FLURRIES  23  12  62 NW10      30.38S WCI  12
PEORIA         CLOUDY    25  16  68 W12       30.42S WCI  14
$$

NOTE: "FAIR" INDICATES FEW OR NO CLOUDS BELOW 12,000 FEET WITH NO
SIGNIFICANT WEATHER AND/OR OBSTRUCTIONS TO VISIBILITY. WIND
SPEEDS ARE IN MILES-PER-HOUR.



USA.gov is the U.S. government's official web portal to all federal, state and local government web resources and services.